Home > Weather > Schweinfurt > Past weeks

Flag for Germany Past Weather in Schweinfurt, Bavaria, Germany — Yesterday and Last 2 Weeks

Now
67 °F

Sunny.


Feels Like: 67 °F
Forecast: 58 / 75 °F
Wind: 2 mph from Southwest

Location: Illesheim

Current Time: Jul 30, 2016 at 10:54:04 PM

Latest Report: Jul 30, 2016 at 9:58 PM


Visibility: N/A

Pressure: 29.91 "Hg

Humidity: 74%

Dew Point: 59 °F

Location of SchweinfurtLocation

Past Weather in Schweinfurt — Graph

°F

Schweinfurt Temperature Yesterday

Maximum temperature yesterday: 77 °F (at 4:58 PM)
Minimum temperature yesterday: 62 °F (at 5:58 AM)
Average temperature yesterday: 70 °F

High & Low Weather Summary for the Past Weeks

 TemperatureHumidityPressure
High90 °F (Jul 20, 4:58 PM)100% (Jul 22, 12:58 AM)30.35 "Hg (Jul 22, 12:58 AM)
Low44 °F (Jul 16, 5:58 AM)31% (Jul 20, 3:58 PM)29.87 "Hg (Jul 21, 3:58 AM)
Average69 °F73%30.07 "Hg
* Reported Jul 15 8:58 PM — Jul 30 8:58 PM, Schweinfurt, Weather by CustomWeather, © 2016

Note: Actual official high and low records may vary slightly from our data, if they occured in-between our weather recording intervals... More about our weather records

Advertising

Schweinfurt Weather History for the Previous 24 Hours

Scroll right to see more
 ConditionsComfort  
Time TempWeatherWind HumidityBarometerVisibility
8:58 PM
Sat, Jul 30
75 °FSunny.3 mph57%29.90 "HgN/A
7:58 PM78 °FSunny.7 mph52%29.89 "HgN/A
6:58 PM79 °FPassing clouds.10 mph48%29.90 "HgN/A
5:58 PM81 °FScattered clouds.14 mph45%29.90 "HgN/A
4:58 PM82 °FPassing clouds.10 mph44%29.90 "HgN/A
3:58 PM82 °FPassing clouds.16 mph42%29.90 "HgN/A
2:58 PM82 °FScattered clouds.14 mph43%29.91 "HgN/A
1:58 PM79 °FScattered clouds.17 mph48%29.91 "HgN/A
12:58 PM79 °FPartly sunny.13 mph51%29.92 "HgN/A
11:58 AM78 °FPartly sunny.15 mph53%29.94 "HgN/A
10:58 AM77 °FSunny.12 mph51%29.94 "HgN/A
9:58 AM73 °FScattered clouds.12 mph61%29.96 "HgN/A
8:58 AM72 °FScattered clouds.12 mph66%29.96 "HgN/A
7:58 AM68 °FSunny.8 mph73%29.96 "HgN/A
6:58 AM61 °FSunny.5 mph89%29.96 "HgN/A
5:58 AM63 °FClear.6 mph83%29.96 "HgN/A
4:58 AM64 °FPassing clouds.6 mph78%29.96 "HgN/A
3:58 AM65 °FMostly cloudy.6 mph80%29.96 "HgN/A
2:58 AM63 °FOvercast.3 mph83%29.96 "HgN/A
1:58 AM64 °FPassing clouds.5 mph78%29.96 "HgN/A
12:58 AM62 °FPassing clouds.1 mph84%29.97 "HgN/A
11:58 PM
Fri, Jul 29
63 °FClear.5 mph83%29.96 "HgN/A
10:58 PM65 °FClear.5 mph76%29.96 "HgN/A
Weather by CustomWeather, © 2016

See weather overviewHow to use our weather pages